Regional Weather Roundup
Issued by NWS State College, PA

Home | Current Version | Previous Version | Graphics & Text | Print | Product List | Glossary Off
Versions: 1 2 3 4 5 6 7 8 9 10 11 12 13 14 15 16 17 18 19 20 21 22 23 24 25 26 27 28 29 30 31 32 33 34 35 36 37 38 39 40 41 42 43 44 45 46 47 48 49 50

000
ASUS41 KCTP 211210
RWRCTP

REGIONAL WEATHER ROUNDUP
NATIONAL WEATHER SERVICE STATE COLLEGE PA
800 AM EDT SUN SEP 21 2014

Note: "fair" indicates few or no clouds below 12,000 feet with no
significant weather and/or obstructions to visibility.

* = STATION THAT DOES NOT REPORT PRECIPITATION /E.G. RAIN...SNOW...ETC/
    THUNDER OR FOG.

PAZ002>004-007>009-013>016-020>023-029>032-211300-
WESTERN PENNSYLVANIA

CITY           SKY/WX    TMP DP  RH WIND       PRES   REMARKS
ERIE           LGT RAIN  70  63  78 S20G28    29.66F
MEADVILLE      LGT RAIN  66  63  90 S10G23    29.73S FOG
FRANKLIN*      CLOUDY    64  61  88 S14       29.77F
NEW CASTLE     NOT AVBL
BEAVER COUNTY  NOT AVBL
BUTLER*        PTCLDY    66  61  82 S9G16     29.81F
PITTSBURGH INT MOCLDY    67  62  84 S12       29.79F
PITTSBURGH     CLEAR     64  58  80 S12       29.82F
INDIANA*       MOCLDY    64  61  88 S7        29.88S
LATROBE        MOCLDY    66  63  88 SW14      29.86R
WASHINGTON CO* PTCLDY    66  61  82 S6        29.83F
$$

PAZ004>006-010>012-017>019-024>028-033>037-041-042-045-046-049>053-211300-
CENTRAL PENNSYLVANIA

CITY           SKY/WX    TMP DP  RH WIND       PRES   REMARKS
BRADFORD       CLOUDY    64  60  87 S9        29.80F
DUBOIS         CLOUDY    64  60  87 S7        29.82S
CLEARFIELD     CLOUDY    59  57  93 SW3       29.86R
JOHNSTOWN      PTSUNNY   63  56  78 SW10      29.90R
ALTOONA        SUNNY     60  57  89 SW5       29.90S
STATE COLLEGE  SUNNY     57  55  94 W7        29.87F
WILLIAMSPORT   CLOUDY    64  58  80 E9        29.86F
SELINSGROVE    SUNNY     59  57  93 S5        29.88F FOG
FT INDIANTOWN  FOG       61  61 100 NE1       29.90F VSB 3/4
CAPITAL CITY   CLOUDY    61  59  93 SE7       29.89F FOG
HARRISBURG     FOG       61  60  97 E5        29.89F VSB 1/2
YORK           FOG       56  55  97 CALM      29.90S VSB<1/4
$$

PAZ038>040-043-044-047-048-054-055-060>062-067>071-211300-
EASTERN PENNSYLVANIA

CITY           SKY/WX    TMP DP  RH WIND       PRES   REMARKS
SCRANTON       SUNNY     59  57  93 CALM      29.90F FOG
MOUNT POCONO   CLOUDY    58  56  93 SW5       29.93F FOG
ALLENTOWN      CLOUDY    62  59  90 CALM      29.92S FOG
QUAKERTOWN*    CLOUDY    63  59  88 N3        29.93S
READING        FOG       60  58  92 CALM      29.91S VSB 3/4
LANCASTER      FOG       61  60  97 CALM      29.91S VSB 1/4
COATESVILLE    FOG       61  61 100 CALM      29.92F VSB<1/4
POTTSTOWN      CLOUDY    60  59  96 CALM      29.93R FOG
BLUE BELL      CLOUDY    64  63  94 CALM      29.91S
DOYLESTOWN     CLOUDY    64  63  96 CALM      29.91S
WILLOW GROVE   NOT AVBL
NORTH PHILA    CLOUDY    68  63  84 NE5       29.91F HAZE
PHILADELPHIA   PTSUNNY   68  65  90 NE6       29.90F FOG
$$


USA.gov is the U.S. government's official web portal to all federal, state and local government web resources and services.